www.pogodaiklimat.ru

Погода и климат >> Архив погоды >> Россия >> Приморский край >> Находка


АРХИВ ПОГОДЫ в Находке

Время (UTC), дата Ветер
(напр.,м/с)
 
Видим.   Явления Облачность Т
(С)
Тd
(С)
f
(%)
Тe
(С)
Тes
(С)
Комфортность P
(гПа)
Po
(гПа)
Тmin
(С)
Tmax
(С)
R
(мм)
R24
(мм)
S
(см)
09 12.03 штиль 0 1000 м снег 10/10 600 м
[Frnb Ns]
-0.2 -0.8 96 -2 -2 по сезону 1005.7 998.7 +1.9 5
12 12.03 штиль 0 1000 м слаб. снег [диам. отлож. мокр. снега 12 мм] 10/10 600 м
[Frnb Ns]
-0.9 -1.1 99 -2 -2 тепло 1005.7 998.8
15 12.03 штиль 0 20 км {снег} 3/0
[Ac trans]
-3.4 -3.9 96 -5 -5 по сезону 1007.1 1000.0
18 12.03 штиль 0 20 км {снег} 6/0
[Ac und]
-3.1 -8.9 64 -4 -4 тепло 1007.1 1000.0
21 12.03 С 3 20 км 10/0
[Ac und]
-3.6 -10.1 61 -8 -8 по сезону 1005.7 998.8 -4.1 0.0 15
00 13.03 С 3 20 км 9/0
[Ac trans]
-2.7 -8.8 63 -7 -6 по сезону 1005.9 998.9 -4.3
03 13.03 СЗ 3 20 км 9 баллов -1.3 -9.4 54 -6 -5 по сезону 1007.0 1000.0
06 13.03 СЗ 5 20 км 10/0
[As trans]
-0.6 -10.5 47 -6 -5 по сезону 1005.9 999.0
09 13.03 СЗ 3
{10}
20 км 10/0
[As op]
-0.5 -10.4 47 -5 -5 по сезону 1008.3 1001.3 -0.1
12 13.03 СЗ 6-12
{12}
20 км ясно +0.3 -13.4 35 -5 -5 по сезону 1010.4 1003.5
15 13.03 З 4
{12}
20 км ясно -0.7 -11.7 43 -5 -5 по сезону 1013.8 1006.7
18 13.03 СЗ 5 20 км ясно -1.2 -11.9 44 -7 -7 по сезону 1013.8 1006.7
21 13.03 СЗ 4 20 км 3/0
[Cc]
-2.1 -9.9 55 -7 -7 по сезону 1015.3 1008.3 -2.1
00 14.03 СЗ 4
{11}
50 км 3/0
[Ci fib]
+0.4 -8.4 52 -4 -1 по сезону 1017.0 1010.1 -2.5
03 14.03 З 2 50 км 3/0
[Ci fib]
+3.6 -6.4 48 +1 +10 опасность
простуды
1017.7 1010.7
06 14.03 З 5-10
{10}
50 км 3/0
[Cc]
+3.4 -4.9 55 -1 +2 по сезону 1016.0 1009.1
09 14.03 З 5-10
{11}
20 км 6/0
[Ac lent]
+0.9 -5.7 61 -4 -4 по сезону 1017.0 1010.1 +3.9
12 14.03 С 1 20 км ясно +0.6 -5.6 63 -1 -1 тепло 1020.4 1013.3
15 14.03 штиль 0 20 км ясно -1.1 -4.4 78 -2 -2 тепло 1020.4 1013.3
18 14.03 В 1 20 км ясно -3.2 -5.1 87 -5 -5 по сезону 1019.2 1012.0
21 14.03 штиль 0 20 км 3/0
[Ac lent]
-3.9 -6.3 83 -5 -5 по сезону 1017.1 1010.0 -4.2
00 15.03 В 1 50 км 3/0
[Cc]
-1.6 -4.9 78 -4 +2 по сезону 1017.1 1010.1
03 15.03 В 2 50 км 4/3 600 м
[Cu hum Ci fib]
+3.5 -1.5 70 +1 +8 тепло 1016.3 1009.3
06 15.03 ЮЗ 4 50 км 2 балла +5.5 -2.8 55 +2 +5 тепло 1014.9 1008.0
09 15.03 З 5
{11}
50 км 4/3 600 м
[Cb cap Ci fib]
+2.6 -6.5 51 -2 -2 по сезону 1015.0 1008.0 +6.1
12 15.03 штиль 0 20 км ясно -0.5 -2.2 88 -2 -2 по сезону 1016.4 1009.3
15 15.03 штиль 0 20 км ясно -1.2 -4.4 79 -2 -2 тепло 1016.4 1009.3
18 15.03 штиль 0 20 км ясно -2.4 -3.5 92 -4 -4 по сезону 1016.4 1009.3
21 15.03 СВ 1 4000 м дымка ясно -4.8 -5.1 98 -7 -7 по сезону 1016.6 1009.6 -4.9
00 16.03 штиль 0 4000 м дымка ясно -0.4 -2.5 86 -2 +6 тепло 1017.3 1010.4
03 16.03 В 2 20 км 7 баллов +1.7 -3.6 68 -1 +2 тепло 1017.7 1010.7
06 16.03 З 5 50 км 4 балла +5.1 -8.7 36 +1 +3 тепло 1014.9 1008.0
09 16.03 З 5
{11}
50 км 4/0 600 м
[Ac lent]
+1.7 -11.1 38 -3 -3 по сезону 1015.4 1008.5 +5.4
12 16.03 З 5
{10}
20 км ясно +1.6 -9.5 43 -3 -3 по сезону 1017.7 1010.8
15 16.03 ЮВ 1 20 км ясно -0.9 -7.5 61 -3 -3 по сезону 1019.1 1012.0
18 16.03 штиль 0 20 км ясно -3.6 -7.7 73 -4 -4 по сезону 1019.2 1012.0
21 16.03 СВ 1 20 км ясно -4.2 -7.5 78 -6 -6 по сезону 1018.2 1011.1 -4.2
00 17.03 В 2 20 км ясно -0.9 -6.5 66 -4 +1 по сезону 1019.5 1012.5 -4.3
03 17.03 З 4 20 км ясно +5.6 -4.8 47 +2 +10 опасность
простуды
1020.3 1013.3
06 17.03 ЮЗ 4 20 км ясно +7.1 -9.3 30 +4 +9 тепло 1017.6 1010.7
09 17.03 З 5 20 км ясно +3.2 -6.5 49 -1 -1 по сезону 1019.0 1012.0 +7.3
12 17.03 З 2 20 км ясно +2.6 -5.3 56 0 0 тепло 1020.3 1013.3
15 17.03 штиль 0 20 км 6 баллов -0.2 -3.4 79 -1 -1 тепло 1019.1 1012.0
18 17.03 штиль 0 20 км ясно -1.7 -3.4 88 -3 -3 тепло 1019.1 1012.0
21 17.03 штиль 0 20 км 10/10 1000 м
[Sc]
-2.1 -4.3 85 -3 -3 тепло 1016.4 1009.4 -2.5
00 18.03 В 1 20 км 10/10 1000 м
[Sc]
-0.8 -3.4 83 -3 -3 по сезону 1015.7 1008.7
03 18.03 ЮЗ 4 20 км 1 балл +8.0 +1.2 62 +5 +12 тепло 1013.6 1006.7
06 18.03 Ю 5 20 км 2 балла +7.6 +0.8 62 +4 +7 тепло 1010.8 1004.0
09 18.03 ЮВ 2 20 км ясно +4.9 +0.7 74 +2 +2 тепло 1008.5 1001.8 +9.0
12 18.03 СЗ 1 20 км ясно +3.2 +0.4 82 +2 +2 тепло 1009.6 1002.7
15 18.03 штиль 0 20 км 4 балла +1.1 -0.7 88 -0 -0 тепло 1009.7 1002.7
18 18.03 штиль 0 20 км ясно +1.7 -0.5 85 +1 +1 тепло 1009.7 1002.7
21 18.03 СЗ 1 20 км 3/0
[Cs]
+0.8 -1.0 88 -1 -1 тепло 1009.7 1002.8 0.0
00 19.03 ЮВ 1 20 км 8/0
[Cs]
+3.1 -0.8 76 +2 +7 тепло 1011.3 1004.5
03 19.03 В 1 50 км 4 балла +13.6 -2.8 32 +14 +23 тепло 1012.0 1005.3
06 19.03 З 2 20 км 10 баллов +16.1 -8.2 18 +16 +16 тепло 1010.6 1004.0

 

Местоположение метеостанции Находка (Приморский край, Россия): широта 42.80 долгота 132.80 высота над уровнем моря 56 м.

В архиве по умолчанию представлена погода в Находке за последнюю неделю. Архивные данные за месяц целиком и за предыдущие месяцы, начиная с января 2011 года, Вы можете получить, выбрав интересующий диапазон дат из раскрывающегося списка и нажав кнопку "Ввод!".


*Определитесь, кто Вы:
робот инопланетянин человек

Внимание! Время в таблицах - всемирное. Для получения местного времени необходимо прибавить поправку, которая равна 10 ч.

Смотрите также архив погоды в соседних городах и на ближайших метеорологических станциях:

Погода в Партизанске (Приморский край, Россия) (42 км)
Погода на Мысе Назимова (Приморский край, Россия) (78 км)
Погода в Многоудобном (Приморский край, Россия) (79 км)
Погода в Владивостоке (Приморский край, Россия) (81 км)
Погода в Преображении (Приморский край, Россия) (90 км)
Погода в Лазо (Приморский край, Россия) (105 км)
Погода в Барабаше (Приморский край, Россия) (122 км)
Погода в Анучино (Приморский край, Россия) (131 км)
Погода в Гамове (Приморский край, Россия) (132 км)
Погода в Тимирязевском (Приморский край, Россия) (140 км)

Пояснения к столбцам:

Ветер - указаны скорость ветра в м/с - средняя за 10 мин, порывы в срок и между сроками (в фигурных скобках) и направление, откуда дует ветер: С - северный, СВ - северо-восточный, В - восточный, ЮВ - юго-восточный, Ю - южный, ЮЗ - юго-западный, З - западный, СЗ - северо-западный.
Видимость - горизонтальная дальность видимости в метрах или километрах. При видимости от 1 до 10 км при отсутствии осадков обычно наблюдается дымка, при ухудшении видимости до 1 км и менее - туман. В сухую погоду видимость может ухудшаться дымом, пылью или мглою.
Явления - указаны атмосферные явления, наблюдавшиеся в срок или в последний час перед сроком; фигурными скобками обозначены явления, наблюдавшиеся между сроками (за 1-3 часа до срока); квадратными скобками обозначены град или гололедные отложения с указанием их диаметра в мм.
Облачность - указаны через наклонную черту общая и нижняя облачность в баллах и высота нижней границы облаков в метрах; квадратными скобками обозначены формы облаков: Ci - перистые, Cs - перисто-слоистые, Cc - перисто-кучевые, Ac - высококучевые, As - высокослоистые, Sc - слоисто-кучевые, Ns - слоисто-дождевые, Cu - кучевые, Cb - кучево-дождевые. Подробнее классификацию облаков см. в Атласе облаков (PDF).
T - Температура воздуха - температура, измеренная на высоте 2 м над землей.
Td - Температура точки росы - температура, при понижении до которой содержащийся в воздухе водяной пар достигнет насыщения.
f - Относительная влажность воздуха - влажноcть воздуха, измеренная на высоте 2 м над землей.
Te - Эффективная температура - температура, которую ощущает одетый по сезону человек в тени. Характеристика душности погоды. При расчете учитывается влияние влажности воздуха и скорости ветра на теплоощущения человека.
Tes - Эффективная температура на солнце - температура, которую ощущает человек, с поправкой на солнечный нагрев. Характеристика знойности погоды. Зависит от высоты солнца над горизонтом, облачности и скорости ветра. Ночью, в пасмурную погоду, а также при ветре 12 м/с и более поправка равна нулю.
P - Атмосферное давление - приведенное к уровню моря атмосферное давление.
Po - Атмосферное давление - измеренное на уровне метеостанции атмосферное давление.
Tmin - Минимальная температура - минимум температуры воздуха на высоте 2 м над землей.
Tmax - Максимальная температура - максимум температуры воздуха на высоте 2 м над землей.
R - Количество осадков - Количество выпавших осадков за период времени, мм. При наведении курсора мыши на число - период времени, за который выпало указанное количество осадков.
R24 - Количество осадков - Количество выпавших осадков за 24 часа, мм.
S - Снежный покров - Высота снежного покрова, см. При наведении курсора мыши на число - состояние снежного покрова и степень покрытия местности в баллах.